Printer-friendly version

IAU Minor Planet Center

Minor Planet Center

P/2005 L1 (McNaught)

Orbital Elements

The following orbital elements are taken from MPC 54559:
P/2005 L1 (McNaught)
Epoch 2005 Dec. 16.0 TT = JDT 2453720.5
T 2005 Dec. 12.9354 TT                                  MPC
q   3.143452             (2000.0)            P               Q
n   0.1244470      Peri.  149.5149      +0.3095420      +0.9466643
a   3.973255       Node   138.3318      -0.8973347      +0.3219538
e   0.208847       Incl.    7.7370      -0.3146017      +0.0131341
P   7.92
From 193 observations 2005 May 16-July 14, mean residual 0".5.
Elements are also available for the current standard epoch:
P/2005 L1 (McNaught)
Epoch 2010 Jan. 4.0 TT = JDT 2455200.5
T 2013 Nov. 23.2160 TT                                  MPC
q   3.150444             (2000.0)            P               Q
n   0.1241063      Peri.  149.9551      +0.3163411      +0.9444106
a   3.980523       Node   138.3037      -0.8949739      +0.3284082
e   0.208535       Incl.    7.7358      -0.3145632      +0.0153836
P   7.94
An explanation of the orbital elements is available.

These orbital elements are also available in forms suitable for loading into a number of popular planetarium-type software programs.


Ephemeris

The following ephemeris is at intervals of five days. A daily ephemeris covering the same time interval is also available.

Personalized ephemerides for this (and other) objects may be generated using the Minor Planet & Comet Ephemeris Service.

Recent magnitude estimates for this comet (as reported to the ICQ) may be available.

Date    TT    R. A. (2000) Decl.     Delta      r     Elong.  Phase   m1    m2

WARNING!

This comet gets close to the sun during the period covered in the ephemeris below. Observers are warned to be wary of observing comets near the sun. NEVER point any kind of optical instrument at the sun--instant blindness will be the probable result.

2009 10 26 07 53.36 +16 23.4 4.612 4.809 95.4 11.9 19.6 2009 10 31 07 54.40 +16 18.9 4.535 4.809 100.1 11.7 19.6 2009 11 05 07 55.10 +16 15.3 4.458 4.809 104.9 11.5 19.6 2009 11 10 07 55.44 +16 12.8 4.383 4.810 109.8 11.2 19.5 2009 11 15 07 55.41 +16 11.5 4.310 4.810 114.8 10.8 19.5 2009 11 20 07 55.00 +16 11.4 4.240 4.810 119.9 10.3 19.5 2009 11 25 07 54.22 +16 12.6 4.174 4.811 125.2 9.7 19.4 2009 11 30 07 53.07 +16 15.0 4.111 4.811 130.5 9.0 19.4 2009 12 05 07 51.56 +16 18.7 4.054 4.811 135.9 8.2 19.4 2009 12 10 07 49.71 +16 23.6 4.002 4.811 141.4 7.3 19.3 2009 12 15 07 47.53 +16 29.8 3.955 4.810 146.9 6.4 19.3 2009 12 20 07 45.06 +16 37.1 3.916 4.810 152.6 5.4 19.3 2009 12 25 07 42.34 +16 45.4 3.883 4.810 158.2 4.4 19.3 2009 12 30 07 39.41 +16 54.6 3.857 4.810 163.9 3.3 19.3 2010 01 04 07 36.32 +17 04.6 3.839 4.809 169.4 2.2 19.2 2010 01 09 07 33.14 +17 15.1 3.829 4.809 174.2 1.2 19.2 2010 01 14 07 29.91 +17 26.1 3.828 4.808 175.2 1.0 19.2 2010 01 19 07 26.70 +17 37.3 3.834 4.808 171.0 1.8 19.2 2010 01 24 07 23.57 +17 48.7 3.848 4.807 165.6 2.9 19.2 2010 01 29 07 20.58 +18 00.0 3.869 4.806 159.9 4.0 19.3 2010 02 03 07 17.78 +18 11.1 3.899 4.806 154.3 5.1 19.3 2010 02 08 07 15.23 +18 22.0 3.935 4.805 148.7 6.1 19.3 2010 02 13 07 12.95 +18 32.4 3.978 4.804 143.1 7.1 19.3 2010 02 18 07 11.00 +18 42.4 4.027 4.803 137.6 8.0 19.3 2010 02 23 07 09.39 +18 51.9 4.081 4.802 132.2 8.8 19.4 2010 02 28 07 08.15 +19 00.8 4.140 4.801 126.9 9.5 19.4 2010 03 05 07 07.29 +19 09.0 4.204 4.800 121.7 10.1 19.4 2010 03 10 07 06.80 +19 16.6 4.271 4.798 116.6 10.7 19.5 2010 03 15 07 06.71 +19 23.5 4.342 4.797 111.5 11.1 19.5 2010 03 20 07 06.99 +19 29.7 4.415 4.796 106.6 11.5 19.5 2010 03 25 07 07.65 +19 35.1 4.490 4.794 101.8 11.7 19.6 2010 03 30 07 08.67 +19 39.7 4.566 4.793 97.1 11.9 19.6 2010 04 04 07 10.04 +19 43.6 4.642 4.791 92.5 12.0 19.6 2010 04 09 07 11.74 +19 46.7 4.719 4.789 88.0 12.1 19.7 2010 04 14 07 13.75 +19 48.9 4.796 4.788 83.5 12.0 19.7 2010 04 19 07 16.06 +19 50.3 4.872 4.786 79.2 11.9 19.7 2010 04 24 07 18.65 +19 50.9 4.946 4.784 74.9 11.7 19.8 2010 04 29 07 21.50 +19 50.6 5.020 4.782 70.7 11.5 19.8 2010 05 04 07 24.59 +19 49.4 5.091 4.780 66.6 11.2 19.8 2010 05 09 07 27.90 +19 47.3 5.159 4.778 62.5 10.8 19.9 2010 05 14 07 31.42 +19 44.4 5.226 4.776 58.5 10.4 19.9 2010 05 19 07 35.13 +19 40.5 5.289 4.774 54.6 9.9 19.9 2010 05 24 07 39.01 +19 35.8 5.349 4.772 50.7 9.4 19.9 2010 05 29 07 43.04 +19 30.2 5.405 4.769 46.8 8.9 19.9 2010 06 03 07 47.22 +19 23.6 5.458 4.767 43.0 8.3 20.0 2010 06 08 07 51.52 +19 16.2 5.507 4.765 39.3 7.7 20.0 2010 06 13 07 55.93 +19 07.9 5.552 4.762 35.5 7.1 20.0 2010 06 18 08 00.45 +18 58.8 5.592 4.760 31.8 6.5 20.0 2010 06 23 08 05.05 +18 48.8 5.629 4.757 28.2 5.8 20.0 2010 06 28 08 09.72 +18 38.0 5.660 4.754 24.5 5.1 20.0 2010 07 03 08 14.46 +18 26.3 5.687 4.751 20.9 4.4 20.0 2010 07 08 08 19.24 +18 14.0 5.710 4.749 17.3 3.6 20.0 2010 07 13 08 24.07 +18 00.8 5.727 4.746 13.7 2.9 20.1 2010 07 18 08 28.92 +17 47.0 5.740 4.743 10.1 2.2 20.1 2010 07 23 08 33.80 +17 32.5 5.748 4.740 6.6 1.4 20.1 2010 07 28 08 38.68 +17 17.4 5.750 4.737 3.1 0.7 20.1 2010 08 02 08 43.56 +17 01.7 5.748 4.734 1.3 0.3 20.0 2010 08 07 08 48.43 +16 45.5 5.741 4.730 4.4 0.9 20.0 2010 08 12 08 53.28 +16 28.8 5.729 4.727 8.0 1.7 20.0 2010 08 17 08 58.10 +16 11.7 5.711 4.724 11.6 2.5 20.0 2010 08 22 09 02.88 +15 54.2 5.689 4.720 15.2 3.2 20.0 2010 08 27 09 07.61 +15 36.5 5.662 4.717 18.8 4.0 20.0 2010 09 01 09 12.28 +15 18.5 5.630 4.713 22.5 4.7 20.0 2010 09 06 09 16.89 +15 00.5 5.594 4.710 26.2 5.4 20.0 2010 09 11 09 21.41 +14 42.3 5.552 4.706 29.9 6.1 19.9 2010 09 16 09 25.85 +14 24.2 5.506 4.702 33.6 6.8 19.9 2010 09 21 09 30.18 +14 06.2 5.456 4.699 37.4 7.5 19.9 2010 09 26 09 34.41 +13 48.4 5.402 4.695 41.2 8.1 19.9 2010 10 01 09 38.51 +13 31.0 5.344 4.691 45.1 8.7 19.9 2010 10 06 09 42.48 +13 13.9 5.281 4.687 49.0 9.3 19.8 2010 10 11 09 46.29 +12 57.4 5.215 4.683 53.0 9.8 19.8 2010 10 16 09 49.95 +12 41.5 5.146 4.679 57.0 10.3 19.8 2010 10 21 09 53.43 +12 26.4 5.074 4.675 61.1 10.7 19.7 2010 10 26 09 56.72 +12 12.2 4.999 4.670 65.2 11.1 19.7 2010 10 31 09 59.81 +11 59.0 4.921 4.666 69.4 11.5 19.6 2010 11 05 10 02.67 +11 46.9 4.841 4.662 73.7 11.8 19.6 2010 11 10 10 05.30 +11 36.1 4.760 4.657 78.1 12.0 19.6 2010 11 15 10 07.68 +11 26.7 4.677 4.653 82.5 12.2 19.5 2010 11 20 10 09.78 +11 18.9 4.594 4.648 87.0 12.3 19.5 2010 11 25 10 11.60 +11 12.7 4.510 4.644 91.6 12.3 19.4 2010 11 30 10 13.12 +11 08.3 4.426 4.639 96.3 12.2 19.4

Valid HTML 4.01!